Tucson, AZ

10:59 PM MST on August 24, 2016 (GMT -0700)
Tucson International

Weather History for KTUS - November, 2010

Change the Weather History Date:

Wednesday, November 24, 2010

  Actual Average Record
Temperature  
Mean Temperature 51 °F 56 °F  
Max Temperature 64 °F 70 °F 86 °F (1981)
Min Temperature 37 °F 43 °F 28 °F (1979)
Degree Days  
Heating Degree Days 14 9  
Month to date heating degree days 127 125  
Since 1 July heating degree days 136 149  
Cooling Degree Days 0 0  
Month to date cooling degree days 36 25  
Year to date cooling degree days 3351 3144  
Moisture  
Dew Point 24 °F    
Average Humidity 39    
Maximum Humidity 58    
Minimum Humidity 19    
Precipitation  
Precipitation 0.00 in 0.03 in 0.91 in (1895)
Month to date precipitation 0.00 0.43  
Year to date precipitation 10.67 10.52  
Snow  
Snow 0.00 in - - ()
Month to date snowfall 0.0  
Snow Depth 0.00 in    
Sea Level Pressure  
Sea Level Pressure 29.86 in    
Wind  
Wind Speed 5 mph (WNW)    
Max Wind Speed 29 mph    
Max Gust Speed 33 mph    
Visibility 10 miles    
Events      
T = Trace of Precipitation, MM = Missing Value Source: NWS Daily Summary

Daily Weather History Graph

Daily Weather History Graph

Search for Another Location

Airport or City:

Trip Planner

Search our weather history database for the weather conditions in past years. The results will help you decide how hot, cold, wet, or windy it might be!

Date:

Astronomy

Nov. 24, 2010 Rise Set
Actual Time 7:00 AM MST 5:20 PM MST
Civil Twilight 6:34 AM MST 5:46 PM MST
Nautical Twilight 6:04 AM MST 6:16 PM MST
Astronomical Twilight 5:35 AM MST 6:45 PM MST
Moon 8:13 PM MST (11/24) 9:47 AM MST (11/24)
Length of Visible Light 11h 12m
Length of Day
10h 19m
Waning Gibbous, 90% of the Moon is Illuminated
Nov 24
Waning Gibbous
Nov 28
Last Quarter
Dec 5
New
Dec 13
First Quarter
Dec 21
Full

Hourly Weather History & Observations

Time (MST) Temp. Windchill Dew Point Humidity Pressure Visibility Wind Dir Wind Speed Gust Speed Precip Events Conditions
12:53 AM 46.9 °F - 24.1 °F 41% 29.90 in 10.0 mi SSW 3.5 mph - N/A   Clear
1:53 AM 46.0 °F 43.9 °F 23.0 °F 40% 29.90 in 10.0 mi SE 4.6 mph - N/A   Clear
2:53 AM 43.0 °F - 23.0 °F 45% 29.89 in 10.0 mi Calm Calm - N/A   Clear
3:53 AM 43.0 °F - 23.0 °F 45% 29.89 in 10.0 mi Calm Calm - N/A   Clear
4:53 AM 41.0 °F - 23.0 °F 49% 29.94 in 10.0 mi Calm Calm - N/A   Clear
5:53 AM 42.1 °F 37.7 °F 21.9 °F 45% 29.89 in 10.0 mi SE 6.9 mph - N/A   Clear
6:53 AM 37.0 °F - 21.9 °F 54% 29.92 in 10.0 mi Calm Calm - N/A   Clear
7:53 AM 42.1 °F 37.7 °F 24.1 °F 49% 29.92 in 10.0 mi SSE 6.9 mph - N/A   Clear
8:53 AM 46.9 °F - 24.1 °F 41% 29.93 in 10.0 mi South 3.5 mph - N/A   Clear
9:53 AM 54.0 °F - 25.0 °F 33% 29.91 in 10.0 mi Calm Calm - N/A   Clear
10:53 AM 57.9 °F - 25.0 °F 28% 29.89 in 10.0 mi Calm Calm - N/A   Clear
11:53 AM 61.0 °F - 19.9 °F 21% 29.86 in 10.0 mi North 4.6 mph - N/A   Clear
12:53 PM 62.1 °F - 21.9 °F 21% 29.83 in 10.0 mi North 8.1 mph - N/A   Clear
1:53 PM 62.1 °F - 19.9 °F 20% 29.81 in 10.0 mi NW 9.2 mph - N/A   Clear
2:53 PM 63.0 °F - 21.0 °F 20% 29.79 in 10.0 mi WNW 9.2 mph - N/A   Clear
3:53 PM 62.1 °F - 21.0 °F 21% 29.79 in 10.0 mi NW 10.4 mph - N/A   Clear
4:53 PM 60.1 °F - 23.0 °F 24% 29.80 in 10.0 mi NW 10.4 mph - N/A   Clear
5:53 PM 55.9 °F - 25.0 °F 30% 29.81 in 10.0 mi NNW 8.1 mph - N/A   Clear
6:53 PM 54.0 °F - 26.1 °F 34% 29.83 in 10.0 mi NW 4.6 mph - N/A   Clear
7:53 PM 52.0 °F - 28.9 °F 41% 29.83 in 10.0 mi NW 5.8 mph - N/A   Clear
8:53 PM 48.0 °F - 28.9 °F 48% 29.84 in 10.0 mi West 3.5 mph - N/A   Clear
9:53 PM 45.0 °F 41.8 °F 30.9 °F 58% 29.85 in 10.0 mi WSW 5.8 mph - N/A   Clear
10:53 PM 45.0 °F 41.8 °F 30.9 °F 58% 29.86 in 10.0 mi West 5.8 mph - N/A   Clear
11:53 PM 43.0 °F 39.5 °F 30.9 °F 62% 29.86 in 10.0 mi SW 5.8 mph - N/A   Clear